TimeEDT,TemperatureF,Dew PointF,Humidity,Sea Level PressureIn,VisibilityMPH,Wind Direction,Wind SpeedMPH,Gust SpeedMPH,PrecipitationIn,Events,Conditions,WindDirDegrees,DateUTC
12:56 AM,53.1,51.1,93,29.98,10.0,Calm,Calm,-,N/A,,Clear,0,2012-08-30 04:56:00
1:56 AM,53.6,51.8,94,29.97,10.0,Calm,Calm,-,N/A,,Clear,0,2012-08-30 05:56:00
2:56 AM,53.1,52.0,96,29.97,10.0,Calm,Calm,-,N/A,,Clear,0,2012-08-30 06:56:00
3:56 AM,52.0,50.0,93,29.98,10.0,Calm,Calm,-,N/A,,Clear,0,2012-08-30 07:56:00
4:56 AM,51.1,50.0,96,29.98,10.0,Calm,Calm,-,N/A,,Clear,0,2012-08-30 08:56:00
5:56 AM,50.0,48.9,96,29.99,10.0,Calm,Calm,-,N/A,,Clear,0,2012-08-30 09:56:00
6:56 AM,54.0,52.0,93,30.01,10.0,Calm,Calm,-,N/A,,Clear,0,2012-08-30 10:56:00
7:56 AM,64.9,59.0,81,30.04,10.0,Calm,Calm,-,N/A,,Clear,0,2012-08-30 11:56:00
8:56 AM,70.0,55.0,59,30.04,10.0,WSW,4.6,-,N/A,,Clear,250,2012-08-30 12:56:00
9:56 AM,73.4,51.8,47,30.03,10.0,SW,6.9,-,N/A,,Clear,230,2012-08-30 13:56:00
10:56 AM,75.9,55.0,48,30.03,10.0,SW,8.1,-,N/A,,Clear,230,2012-08-30 14:56:00
11:56 AM,77.0,52.0,42,30.03,10.0,SW,15.0,21.9,N/A,,Clear,230,2012-08-30 15:56:00
12:56 PM,77.0,55.0,47,30.03,10.0,SW,13.8,-,N/A,,Clear,230,2012-08-30 16:56:00
1:56 PM,78.1,55.9,46,30.01,10.0,SW,17.3,21.9,N/A,,Clear,220,2012-08-30 17:56:00
2:56 PM,77.0,55.0,47,29.99,10.0,SW,17.3,24.2,N/A,,Clear,230,2012-08-30 18:56:00
3:56 PM,75.9,57.0,52,29.98,10.0,SW,17.3,25.3,N/A,,Clear,220,2012-08-30 19:56:00
4:56 PM,75.9,53.1,45,29.98,10.0,WSW,19.6,26.5,N/A,,Clear,240,2012-08-30 20:56:00
5:56 PM,73.0,54.0,51,29.98,10.0,WSW,18.4,26.5,N/A,,Clear,240,2012-08-30 21:56:00
6:56 PM,71.1,55.9,59,29.98,10.0,WSW,13.8,-,N/A,,Clear,240,2012-08-30 22:56:00
7:56 PM,70.0,57.0,63,29.98,10.0,WSW,11.5,-,N/A,,Clear,240,2012-08-30 23:56:00
8:56 PM,69.1,57.9,68,29.99,10.0,WSW,8.1,-,N/A,,Clear,250,2012-08-31 00:56:00
9:56 PM,69.1,57.9,68,29.98,10.0,SW,10.4,-,N/A,,Clear,230,2012-08-31 01:56:00
10:56 PM,69.1,57.9,68,29.97,10.0,WSW,9.2,-,N/A,,Clear,240,2012-08-31 02:56:00
11:56 PM,66.0,59.0,78,29.98,10.0,Calm,Calm,-,N/A,,Clear,0,2012-08-31 03:56:00